Location: Trebic
(49.2170°N, 15.8830°E)
Time: 07:41:07
(UTC+02:00)

Transit 2A Rocket - Pass Details

Date: 01 August 2019
Orbit: 590 x 913 km, 66.7° (Epoch: 20 August)

Event Time Altitude Azimuth Distance (km) Brightness Sun altitude
Rises 04:44:09 0° 285° (WNW) 3,404 8.0 -6.8°
Reaches altitude 10° 04:47:57 10° 310° (NW) 2,402 7.4 -6.3°
Maximum altitude 04:50:51 14° 341° (NNW) 2,061 7.5 -5.9°
Drops below altitude 10° 04:53:38 10° 14° (NNE) 2,289 8.3 -5.5°
Sets 04:57:07 0° 39° (NE) 3,136 10.1 -5.1°
